• en France
  • Liste des pays
  • À 7 jours
  • Température de l'eau
  • Carte satellitaire
  • Carte météo
  • Widgets météo
  • user-avatar
    Se connecter

    Météo par heure à Limón

    Ce jour, 21 Février, Mercredi

    Heure Température Précipitation Vent Pression Humidité
    00:00 +24°C° 0,4 mm 3 m/s 761 mmHg 84%
    01:00 +24°C° 0,3 mm 3 m/s 761 mmHg 85%
    02:00 +24°C° 0,3 mm 3 m/s 760 mmHg 85%
    03:00 +24°C° 0,3 mm 2 m/s 760 mmHg 86%
    04:00 +24°C° 0,4 mm 2 m/s 760 mmHg 86%
    05:00 +24°C° 0,4 mm 2 m/s 760 mmHg 86%
    06:00 +24°C° 0,4 mm 2 m/s 761 mmHg 87%
    07:00 +26°C° 0,2 mm 2 m/s 761 mmHg 79%
    08:00 +28°C° 0,2 mm 2 m/s 761 mmHg 71%
    09:00 +30°C° 0,2 mm 2 m/s 762 mmHg 63%
    10:00 +31°C° 0,1 mm 2 m/s 761 mmHg 61%
    11:00 +32°C° 0,1 mm 2 m/s 761 mmHg 58%
    12:00 +32°C° 0,1 mm 2 m/s 761 mmHg 56%
    13:00 +32°C° 0,1 mm 2 m/s 760 mmHg 58%
    14:00 +31°C° 0,1 mm 3 m/s 760 mmHg 61%
    15:00 +31°C° 0,1 mm 3 m/s 759 mmHg 63%
    16:00 +29°C° 0,6 mm 3 m/s 759 mmHg 72%
    17:00 +27°C° 0,6 mm 3 m/s 760 mmHg 82%
    18:00 +25°C° 0,6 mm 3 m/s 760 mmHg 91%
    19:00 +25°C° 1,1 mm 3 m/s 760 mmHg 88%
    20:00 +25°C° 1,1 mm 3 m/s 761 mmHg 85%
    21:00 +25°C° 1,1 mm 3 m/s 762 mmHg 82%
    22:00 +25°C° 1,1 mm 3 m/s 762 mmHg 80%
    23:00 +25°C° 1,1 mm 3 m/s 761 mmHg 79%

    Demain, 22 Février, Jeudi

    Heure Température Précipitation Vent Pression Humidité
    00:00 +25°C° 1,1 mm 3 m/s 761 mmHg 77%
    01:00 +25°C° 0,8 mm 3 m/s 761 mmHg 80%
    02:00 +25°C° 0,8 mm 3 m/s 761 mmHg 83%
    03:00 +24°C° 0,8 mm 2 m/s 760 mmHg 86%
    04:00 +24°C° 0,3 mm 2 m/s 761 mmHg 88%
    05:00 +24°C° 0,3 mm 2 m/s 761 mmHg 90%
    06:00 +24°C° 0,3 mm 2 m/s 761 mmHg 91%
    07:00 +26°C° 0,2 mm 2 m/s 762 mmHg 82%
    08:00 +28°C° 0,2 mm 2 m/s 762 mmHg 72%
    09:00 +30°C° 0,2 mm 2 m/s 763 mmHg 63%
    10:00 +31°C° 0,2 mm 2 m/s 762 mmHg 62%
    11:00 +31°C° 0,2 mm 2 m/s 762 mmHg 60%
    12:00 +32°C° 0,2 mm 2 m/s 761 mmHg 59%
    13:00 +31°C° 0,6 mm 2 m/s 761 mmHg 61%
    14:00 +31°C° 0,6 mm 2 m/s 760 mmHg 62%
    15:00 +31°C° 0,6 mm 3 m/s 759 mmHg 64%
    16:00 +29°C° 0,8 mm 2 m/s 759 mmHg 72%
    17:00 +27°C° 0,8 mm 2 m/s 760 mmHg 80%
    18:00 +25°C° 0,8 mm 2 m/s 760 mmHg 88%
    19:00 +25°C° 0,9 mm 2 m/s 760 mmHg 86%
    20:00 +24°C° 0,9 mm 2 m/s 761 mmHg 83%
    21:00 +24°C° 0,9 mm 2 m/s 762 mmHg 80%
    22:00 +24°C° 0,7 mm 2 m/s 761 mmHg 80%
    23:00 +24°C° 0,7 mm 2 m/s 761 mmHg 79%

    Après-demain, 23 Février, Vendredi

    Heure Température Précipitation Vent Pression Humidité
    00:00 +24°C° 0,7 mm 2 m/s 761 mmHg 78%
    01:00 +24°C° 0,7 mm 2 m/s 761 mmHg 80%
    02:00 +24°C° 0,7 mm 2 m/s 760 mmHg 81%
    03:00 +24°C° 0,7 mm 2 m/s 760 mmHg 82%
    04:00 +24°C° 0,9 mm 2 m/s 760 mmHg 83%
    05:00 +24°C° 0,9 mm 2 m/s 761 mmHg 84%
    06:00 +24°C° 0,9 mm 2 m/s 761 mmHg 84%
    07:00 +26°C° 0,5 mm 2 m/s 761 mmHg 78%
    08:00 +28°C° 0,5 mm 2 m/s 762 mmHg 72%
    09:00 +30°C° 0,5 mm 2 m/s 762 mmHg 66%
    10:00 +31°C° 0,1 mm 2 m/s 762 mmHg 63%
    11:00 +31°C° 0,1 mm 2 m/s 761 mmHg 59%
    12:00 +32°C° 0,1 mm 2 m/s 761 mmHg 55%
    13:00 +32°C° 0 mm 2 m/s 760 mmHg 53%
    14:00 +32°C° 0 mm 2 m/s 759 mmHg 52%
    15:00 +32°C° 0 mm 2 m/s 759 mmHg 50%
    16:00 +29°C° 0 mm 2 m/s 759 mmHg 60%
    17:00 +27°C° 0 mm 2 m/s 759 mmHg 70%
    18:00 +25°C° 0 mm 1 m/s 759 mmHg 80%
    19:00 +24°C° 0,2 mm 2 m/s 760 mmHg 76%
    20:00 +24°C° 0,2 mm 2 m/s 760 mmHg 72%
    21:00 +23°C° 0,2 mm 2 m/s 761 mmHg 67%
    22:00 +23°C° 0,2 mm 2 m/s 761 mmHg 67%
    23:00 +23°C° 0,2 mm 2 m/s 760 mmHg 67%

    24 Février, Samedi

    Heure Température Précipitation Vent Pression Humidité
    00:00 +23°C° 0,2 mm 2 m/s 760 mmHg 67%
    01:00 +23°C° 0,1 mm 2 m/s 760 mmHg 70%
    02:00 +23°C° 0,1 mm 2 m/s 759 mmHg 73%
    03:00 +23°C° 0,1 mm 2 m/s 759 mmHg 76%
    04:00 +23°C° 0 mm 2 m/s 759 mmHg 77%
    05:00 +23°C° 0 mm 2 m/s 760 mmHg 78%
    06:00 +23°C° 0 mm 2 m/s 760 mmHg 80%
    07:00 +26°C° 0 mm 2 m/s 760 mmHg 70%
    08:00 +29°C° 0 mm 2 m/s 761 mmHg 60%
    09:00 +32°C° 0 mm 1 m/s 761 mmHg 49%
    10:00 +32°C° 0 mm 2 m/s 760 mmHg 47%
    11:00 +34°C° 0 mm 2 m/s 760 mmHg 44%
    12:00 +35°C° 0 mm 2 m/s 759 mmHg 42%
    13:00 +34°C° 0 mm 2 m/s 759 mmHg 47%
    14:00 +33°C° 0 mm 3 m/s 758 mmHg 51%
    15:00 +31°C° 0 mm 3 m/s 758 mmHg 56%
    16:00 +29°C° 0,1 mm 3 m/s 758 mmHg 68%
    17:00 +27°C° 0,1 mm 2 m/s 759 mmHg 80%
    18:00 +25°C° 0,1 mm 2 m/s 759 mmHg 91%
    19:00 +25°C° 0,4 mm 2 m/s 760 mmHg 91%
    20:00 +24°C° 0,4 mm 2 m/s 760 mmHg 91%
    21:00 +24°C° 0,4 mm 2 m/s 761 mmHg 91%
    22:00 +24°C° 0,4 mm 2 m/s 760 mmHg 88%
    23:00 +23°C° 0,4 mm 2 m/s 760 mmHg 85%

    25 Février, Dimanche

    Heure Température Précipitation Vent Pression Humidité
    00:00 +23°C° 0,4 mm 2 m/s 760 mmHg 82%
    01:00 +23°C° 0 mm 2 m/s 760 mmHg 79%
    02:00 +23°C° 0 mm 2 m/s 759 mmHg 77%
    03:00 +23°C° 0 mm 2 m/s 759 mmHg 74%
    04:00 +23°C° 0,1 mm 2 m/s 760 mmHg 73%
    05:00 +23°C° 0,1 mm 2 m/s 760 mmHg 72%
    06:00 +23°C° 0,1 mm 2 m/s 760 mmHg 71%
    07:00 +25°C° 0,3 mm 2 m/s 761 mmHg 65%
    08:00 +28°C° 0,3 mm 2 m/s 761 mmHg 59%
    09:00 +31°C° 0,3 mm 2 m/s 761 mmHg 53%
    10:00 +31°C° 0,1 mm 2 m/s 761 mmHg 55%
    11:00 +32°C° 0,1 mm 2 m/s 760 mmHg 56%
    12:00 +33°C° 0,1 mm 3 m/s 760 mmHg 57%
    13:00 +33°C° 0,2 mm 3 m/s 759 mmHg 60%
    14:00 +31°C° 0,2 mm 3 m/s 759 mmHg 63%
    15:00 +31°C° 0,2 mm 3 m/s 758 mmHg 66%
    16:00 +29°C° 0,4 mm 2 m/s 759 mmHg 75%
    17:00 +27°C° 0,4 mm 2 m/s 759 mmHg 85%
    18:00 +25°C° 0,4 mm 1 m/s 759 mmHg 94%
    19:00 +25°C° 0,7 mm 1 m/s 760 mmHg 94%
    20:00 +25°C° 0,7 mm 1 m/s 760 mmHg 93%
    21:00 +24°C° 0,7 mm 1 m/s 761 mmHg 93%
    22:00 +24°C° 0,1 mm 1 m/s 761 mmHg 92%
    23:00 +24°C° 0,1 mm 2 m/s 760 mmHg 90%

    26 Février, Lundi

    Heure Température Précipitation Vent Pression Humidité
    00:00 +24°C° 0,1 mm 2 m/s 760 mmHg 89%
    01:00 +23°C° 0,1 mm 2 m/s 760 mmHg 88%
    02:00 +23°C° 0,1 mm 2 m/s 760 mmHg 87%
    03:00 +23°C° 0,1 mm 2 m/s 759 mmHg 86%
    04:00 +23°C° 0,3 mm 2 m/s 760 mmHg 85%
    05:00 +23°C° 0,3 mm 2 m/s 760 mmHg 84%
    06:00 +23°C° 0,3 mm 2 m/s 761 mmHg 83%
    07:00 +25°C° 0 mm 2 m/s 761 mmHg 74%
    08:00 +28°C° 0 mm 2 m/s 761 mmHg 66%
    09:00 +31°C° 0 mm 2 m/s 761 mmHg 57%
    10:00 +32°C° 0,1 mm 2 m/s 761 mmHg 56%
    11:00 +32°C° 0,1 mm 2 m/s 760 mmHg 56%
    12:00 +34°C° 0,1 mm 3 m/s 760 mmHg 55%
    13:00 +33°C° 0,1 mm 3 m/s 759 mmHg 59%
    14:00 +31°C° 0,1 mm 3 m/s 759 mmHg 62%
    15:00 +31°C° 0,1 mm 3 m/s 758 mmHg 65%
    16:00 +29°C° 0,1 mm 3 m/s 759 mmHg 74%
    17:00 +27°C° 0,1 mm 2 m/s 759 mmHg 83%
    18:00 +26°C° 0,1 mm 2 m/s 759 mmHg 92%
    19:00 +25°C° 0,1 mm 2 m/s 760 mmHg 92%
    20:00 +25°C° 0,1 mm 2 m/s 760 mmHg 93%
    21:00 +24°C° 0,1 mm 1 m/s 760 mmHg 94%
    22:00 +24°C° 0,2 mm 2 m/s 760 mmHg 91%
    23:00 +24°C° 0,2 mm 2 m/s 760 mmHg 89%
    Voir plus